TimeEDT,TemperatureF,Dew PointF,Humidity,Sea Level PressureIn,VisibilityMPH,Wind Direction,Wind SpeedMPH,Gust SpeedMPH,PrecipitationIn,Events,Conditions,WindDirDegrees,DateUTC
12:53 AM,46.0,41.0,83,29.61,10.0,SSE,8.1,-,0.01,Rain,Light Rain,150,2012-10-19 04:53:00
1:53 AM,46.0,42.1,86,29.58,10.0,ESE,6.9,-,0.01,Rain,Light Rain,120,2012-10-19 05:53:00
2:53 AM,46.0,42.1,86,29.56,10.0,SE,8.1,-,0.01,Rain,Light Rain,130,2012-10-19 06:53:00
3:53 AM,46.0,42.1,86,29.55,9.0,SSE,6.9,-,0.02,Rain,Light Rain,150,2012-10-19 07:53:00
4:53 AM,46.0,43.0,89,29.53,10.0,ESE,6.9,-,0.03,Rain,Light Rain,120,2012-10-19 08:53:00
5:53 AM,46.0,42.1,86,29.52,10.0,ESE,9.2,-,0.02,Rain,Light Rain,120,2012-10-19 09:53:00
6:53 AM,46.0,42.1,86,29.51,10.0,SE,10.4,-,0.02,Rain,Light Rain,140,2012-10-19 10:53:00
7:53 AM,46.0,42.1,86,29.50,10.0,SSE,16.1,21.9,0.01,Rain,Light Rain,160,2012-10-19 11:53:00
8:07 AM,46.4,42.8,87,29.50,9.0,SSE,12.7,-,0.01,Rain,Light Rain,160,2012-10-19 12:07:00
8:26 AM,44.6,41.0,87,29.50,7.0,SSW,13.8,-,0.02,Rain,Light Rain,200,2012-10-19 12:26:00
8:53 AM,45.0,41.0,86,29.52,10.0,South,10.4,-,0.03,Rain,Light Rain,180,2012-10-19 12:53:00
9:27 AM,46.4,42.8,87,29.51,10.0,South,10.4,-,0.00,,Overcast,170,2012-10-19 13:27:00
9:53 AM,46.9,42.1,83,29.52,10.0,South,11.5,-,0.00,,Overcast,170,2012-10-19 13:53:00
10:30 AM,46.4,42.8,87,29.51,9.0,South,10.4,-,0.01,Rain,Light Rain,170,2012-10-19 14:30:00
10:53 AM,46.9,43.0,86,29.52,10.0,South,8.1,-,0.01,Rain,Light Rain,170,2012-10-19 14:53:00
11:53 AM,48.0,45.0,89,29.52,9.0,South,11.5,-,0.00,,Overcast,180,2012-10-19 15:53:00
12:53 PM,48.9,45.0,86,29.52,7.0,SSW,10.4,-,0.00,Rain,Light Rain,200,2012-10-19 16:53:00
1:34 PM,50.0,44.6,82,29.50,10.0,South,10.4,-,0.00,,Overcast,180,2012-10-19 17:34:00
1:53 PM,51.1,45.0,80,29.50,10.0,South,11.5,-,0.00,,Overcast,180,2012-10-19 17:53:00
2:38 PM,48.2,44.6,87,29.50,6.0,South,12.7,-,0.04,Rain,Light Rain,190,2012-10-19 18:38:00
2:53 PM,48.9,46.0,90,29.51,7.0,SSW,10.4,-,0.05,Rain,Light Rain,200,2012-10-19 18:53:00
3:53 PM,48.0,44.1,86,29.52,8.0,SSW,9.2,-,0.07,Rain,Light Rain,200,2012-10-19 19:53:00
4:53 PM,48.0,44.1,86,29.54,7.0,South,12.7,-,0.01,Rain,Light Rain,190,2012-10-19 20:53:00
5:19 PM,46.4,44.6,93,29.54,1.8,West,4.6,-,0.06,Rain,Rain,280,2012-10-19 21:19:00
5:24 PM,46.4,44.6,93,29.54,1.5,WNW,4.6,-,0.08,Rain,Rain,290,2012-10-19 21:24:00
5:40 PM,46.4,44.6,93,29.54,2.5,West,3.5,-,0.14,Rain,Rain,280,2012-10-19 21:40:00
5:43 PM,46.4,44.6,93,29.54,4.0,West,5.8,-,0.14,Rain,Light Rain,270,2012-10-19 21:43:00
5:51 PM,46.4,44.6,93,29.54,10.0,West,3.5,-,0.15,Rain,Light Rain,280,2012-10-19 21:51:00
5:53 PM,46.9,44.1,90,29.55,10.0,West,3.5,-,0.15,Rain,Light Rain,270,2012-10-19 21:53:00
6:03 PM,46.4,44.6,93,29.55,10.0,SW,3.5,-,0.00,Rain,Light Rain,220,2012-10-19 22:03:00
6:25 PM,48.2,44.6,87,29.55,10.0,South,5.8,-,0.00,Rain,Light Rain,190,2012-10-19 22:25:00
6:35 PM,48.2,44.6,87,29.55,10.0,SSW,5.8,-,0.00,Rain,Light Rain,200,2012-10-19 22:35:00
6:53 PM,48.0,45.0,89,29.57,10.0,SSW,5.8,-,0.00,Rain,Light Rain,210,2012-10-19 22:53:00
7:38 PM,46.4,44.6,93,29.57,10.0,WSW,4.6,-,0.01,,Overcast,240,2012-10-19 23:38:00
7:53 PM,46.9,44.1,90,29.58,10.0,WSW,3.5,-,0.01,Rain,Light Rain,240,2012-10-19 23:53:00
8:07 PM,46.4,44.6,93,29.57,10.0,SW,3.5,-,0.00,Rain,Light Rain,230,2012-10-20 00:07:00
8:39 PM,46.4,44.6,93,29.58,5.0,SW,10.4,-,0.03,Rain,Rain,220,2012-10-20 00:39:00
8:53 PM,46.0,43.0,89,29.59,10.0,SW,9.2,-,0.05,Rain,Light Rain,230,2012-10-20 00:53:00
9:53 PM,46.0,43.0,89,29.60,10.0,WSW,8.1,-,0.01,Rain,Light Rain,240,2012-10-20 01:53:00
10:53 PM,46.0,43.0,89,29.61,10.0,WSW,5.8,-,0.03,Rain,Light Rain,250,2012-10-20 02:53:00
11:53 PM,46.0,43.0,89,29.62,10.0,WSW,3.5,-,0.02,,Overcast,240,2012-10-20 03:53:00